This is the latest recevied weather packets stored in our database for station/object HS6PNA-1. If no packets are shown the sender has not sent any weather packets the latest 10 day(s).
| Time | Temp. | Humidity | Pressure | Rain* | Wind** | Luminosity | Snow |
|---|---|---|---|---|---|---|---|
| 1777992321 | 33.89° C | 59% | 1005 hPa | - | - | 0 W/m² | - |
| 1777991396 | 34.44° C | 58% | 1004 hPa | - | - | 0 W/m² | - |
| 1777990471 | 34.44° C | 61% | 1004 hPa | - | - | 0 W/m² | - |
| 1777989547 | 34.44° C | 57% | 1004 hPa | - | - | 0 W/m² | - |
| 1777988622 | 34.44° C | 57% | 1004 hPa | - | - | 0 W/m² | - |
| 1777987697 | 34.44° C | 57% | 1003 hPa | - | - | 0 W/m² | - |
| 1777986773 | 34.44° C | 54% | 1003 hPa | - | - | 0 W/m² | - |
| 1777985848 | 34.44° C | 54% | 1003 hPa | - | - | 0 W/m² | - |
| 1777984924 | 34.44° C | 53% | 1003 hPa | - | - | 0 W/m² | - |
| 1777984000 | 35° C | 53% | 1003 hPa | - | - | 0 W/m² | - |
| 1777983075 | 35° C | 52% | 1003 hPa | - | - | 0 W/m² | - |
| 1777982150 | 35° C | 49% | 1002 hPa | - | - | 0 W/m² | - |
| 1777981226 | 35.56° C | 48% | 1002 hPa | - | - | 0 W/m² | - |
| 1777980301 | 35.56° C | 45% | 1002 hPa | - | - | 2 W/m² | - |
| 1777979376 | 36.11° C | 45% | 1001 hPa | - | - | 6 W/m² | - |
| 1777978452 | 36.67° C | 45% | 1001 hPa | - | - | 16 W/m² | - |
| 1777977528 | 37.22° C | 44% | 1001 hPa | - | - | 36 W/m² | - |
| 1777976603 | 37.22° C | 44% | 1001 hPa | - | - | 54 W/m² | - |
| 1777975679 | 37.22° C | 46% | 1001 hPa | - | - | 62 W/m² | - |
| 1777974754 | 37.78° C | 45% | 1001 hPa | - | - | 81 W/m² | - |
| 1777973830 | 37.78° C | 45% | 1002 hPa | - | - | 127 W/m² | - |
| 1777972905 | 37.78° C | 46% | 1002 hPa | - | - | 134 W/m² | - |
| 1777971981 | 37.78° C | 45% | 1002 hPa | - | - | 255 W/m² | - |
| 1777971056 | 37.78° C | 46% | 1002 hPa | - | - | 229 W/m² | - |
| 1777970132 | 37.78° C | 46% | 1002 hPa | - | - | 272 W/m² | - |
* Rain since midnight (hover to see other rain measurements)
** Current wind speed in m/s (hover to see current wind gust speed)